Regional Weather Roundup
Issued by NWS State College, PA

Home | Current Version | Previous Version | Text Only | Print | Product List | Glossary Off
Versions: 1 2 3 4 5 6 7 8 9 10 11 12 13 14 15 16 17 18 19 20 21 22 23 24 25 26 27 28 29 30 31 32 33 34 35 36 37 38 39 40 41 42 43 44 45 46 47 48 49 50

000
ASUS41 KCTP 240403
RWRCTP

REGIONAL WEATHER ROUNDUP
NATIONAL WEATHER SERVICE STATE COLLEGE PA
1200 AM EDT MON JUL 24 2017

Note: "fair" indicates few or no clouds below 12,000 feet with no
significant weather and/or obstructions to visibility.

* = STATION THAT DOES NOT REPORT PRECIPITATION /E.G. RAIN...SNOW...ETC/
    THUNDER OR FOG.

PAZ002>004-007>009-013>016-020>023-029>032-240500-
WESTERN PENNSYLVANIA

CITY           SKY/WX    TMP DP  RH WIND       PRES   REMARKS
ERIE           CLOUDY    72  69  90 SW3       29.76R
MEADVILLE      NOT AVBL
FRANKLIN*      CLOUDY    68  63  83 SW7       29.81S
NEW CASTLE     LGT RAIN  69  68  96 CALM      29.80S
BEAVER COUNTY  NOT AVBL
BUTLER*        CLOUDY    68  64  88 N6        29.80F
PITTSBURGH INT CLOUDY    69  68  96 CALM      29.80S
PITTSBURGH     PTCLDY    68  65  90 SE3       29.79F
INDIANA*       CLOUDY    70  70 100 W10G16    29.83R
LATROBE        LGT RAIN  68  68 100 SW6       29.81F
WASHINGTON CO* CLOUDY    68  66  94 S3        29.80F
$$

PAZ004>006-010>012-017>019-024>028-033>037-041-042-045-046-049>053-240500-
CENTRAL PENNSYLVANIA

CITY           SKY/WX    TMP DP  RH WIND       PRES   REMARKS
BRADFORD       HVY RAIN  66  66 100 S5        29.82F FOG
DUBOIS         TSTM      66  64  93 SW13      29.81S FOG
CLEARFIELD     MOCLDY    69  63  81 NW5       29.80F
JOHNSTOWN      LGT RAIN  67  67 100 SW9       29.82F
ALTOONA        LGT RAIN  71  71 100 S5        29.80F
STATE COLLEGE  CLOUDY    72  70  94 CALM      29.79F
WILLIAMSPORT   HVY RAIN  71  69  93 N18G25    29.80R FOG
SELINSGROVE    RAIN      72  72 100 CALM      29.80R FOG
FT INDIANTOWN  CLOUDY    71  71 100 CALM      29.80F
CAPITAL CITY   CLOUDY    73  69  87 SE6       29.78F
HARRISBURG     CLOUDY    73  70  90 E7        29.78F
YORK           CLOUDY    71  70  96 CALM      29.80F
$$

PAZ038>040-043-044-047-048-054-055-060>062-067>071-240500-
EASTERN PENNSYLVANIA

CITY           SKY/WX    TMP DP  RH WIND       PRES   REMARKS
SCRANTON       LGT RAIN  71  65  81 SE3       29.82S
MOUNT POCONO   LGT RAIN  64  64 100 SE10      29.89S
ALLENTOWN      CLOUDY    72  66  81 E6        29.84R
QUAKERTOWN*    CLOUDY    70  68  94 SE6       29.85S
READING        CLOUDY    72  71  97 SE10G17   29.81F
LANCASTER      MOCLDY    72  72 100 E7        29.80F
COATESVILLE    LGT RAIN  70  70 100 E6G15     29.84F
POTTSTOWN      LGT RAIN  70  69  97 CALM      29.85S
BLUE BELL      CLOUDY    68  68 100 E6        29.84F
DOYLESTOWN     CLOUDY    70  68  93 CALM      29.83F
WILLOW GROVE   NOT AVBL
NORTH PHILA    CLOUDY    73  68  84 VRB3      29.84F
PHILADELPHIA   CLOUDY    72  69  90 E9        29.82F
$$




USA.gov is the U.S. government's official web portal to all federal, state and local government web resources and services.